Gilze-Rijen, Netherlands

1:36 PM CET on January 18, 2017 (GMT +0100)
Gilze-Rijen Air Base

Weather History for EHGR - April, 2014

Change the Weather History Date:

Wednesday, April 2, 2014

  Actual Average Record
Temperature  
Mean Temperature 56 °F -  
Max Temperature 71 °F 57 °F 75 °F (2011)
Min Temperature 41 °F 39 °F 24 °F (2013)
Degree Days  
Heating Degree Days 9    
Growing Degree Days 6 (Base 50)    
Moisture  
Dew Point 46 °F    
Average Humidity 79    
Maximum Humidity 100    
Minimum Humidity 30    
Precipitation  
Precipitation 0.00 in - - ()
Sea Level Pressure  
Sea Level Pressure 29.74 in    
Wind  
Wind Speed 2 mph ()    
Max Wind Speed 7 mph    
Max Gust Speed -    
Visibility 5.1 miles    
Events      
Averages and records for this station are not official NWS values.
T = Trace of Precipitation, MM = Missing Value Source: Averaged Metar Reports

Daily Weather History Graph

Daily Weather History Graph

Search for Another Location

Airport or City:

Trip Planner

Search our weather history database for the weather conditions in past years. The results will help you decide how hot, cold, wet, or windy it might be!

Date:

Astronomy

Apr. 02, 2014 Rise Set
Actual Time 7:13 AM CEST 8:15 PM CEST
Civil Twilight 6:39 AM CEST 8:49 PM CEST
Nautical Twilight 5:58 AM CEST 9:30 PM CEST
Astronomical Twilight 5:14 AM CEST 10:14 PM CEST
Moon 8:29 AM CEST (4/2) 11:43 PM CEST (4/2)
Length of Visible Light 14h 09m
Length of Day
13h 01m
Waxing Crescent, 8% of the Moon is Illuminated
Apr 2
Waxing Crescent
Apr 7
First Quarter
Apr 15
Full
Apr 22
Last Quarter
Apr 29
New

Hourly Weather History & Observations

Time (CEST) Temp. Windchill Dew Point Humidity Pressure Visibility Wind Dir Wind Speed Gust Speed Precip Events Conditions
12:00 AM 51 °F - 47 °F 83% 29.83 in 4 mi East 2.2 mph - -   Mist
12:25 AM 51.8 °F - 48.2 °F 88% 29.80 in 3.7 mi North 1.2 mph - N/A   Partly Cloudy
12:55 AM 50.0 °F - 48.2 °F 94% 29.80 in 3.7 mi NNE 1.2 mph - N/A   Mist
1:00 AM 49 °F - 47 °F 90% 29.83 in 4 mi NE 2.2 mph - -   Mist
1:25 AM 48.2 °F - 46.4 °F 93% 29.80 in - Calm Calm - N/A   Mist
1:29 AM 48.2 °F - 46.4 °F 93% 29.80 in 3.1 mi Calm Calm - N/A   Mist
1:37 AM 46.4 °F - 46.4 °F 100% 29.80 in - Calm Calm - N/A   Mist
1:42 AM 46.4 °F - 46.4 °F 100% 29.80 in 3.1 mi NW 1.2 mph - N/A   Mist
1:46 AM 46.4 °F - 44.6 °F 93% 29.80 in - NW 1.2 mph - N/A   Mist
1:55 AM 46.4 °F - 44.6 °F 93% 29.80 in - NNW 1.2 mph - N/A   Mist
1:57 AM 46.4 °F - 44.6 °F 93% 29.80 in 3.1 mi NE 2.3 mph - N/A   Mist
2:00 AM 46 °F - 44 °F 92% 29.82 in 3 mi NE 2.2 mph - -   Mist
2:13 AM 46.4 °F - 46.4 °F 100% 29.80 in 3.1 mi ENE 2.3 mph - N/A   Mist
2:25 AM 46.4 °F - 46.4 °F 100% 29.80 in 3.1 mi NNE 2.3 mph - N/A   Mist
2:47 AM 46.4 °F - 46.4 °F 100% 29.80 in - NE 2.3 mph - N/A   Mist
2:55 AM 46.4 °F - 44.6 °F 93% 29.80 in 3.1 mi NE 2.3 mph - N/A   Mist
3:00 AM 46 °F - 45 °F 96% 29.81 in 3 mi NNE 2.2 mph - -   Mist
3:02 AM 46.4 °F - 44.6 °F 93% 29.80 in - NE 2.3 mph - N/A   Mist
3:25 AM 46.4 °F - 46.4 °F 100% 29.80 in 2.5 mi NNE 1.2 mph - N/A   Mist
3:41 AM 46.4 °F - 44.6 °F 93% 29.80 in - NE 1.2 mph - N/A   Mist
3:45 AM 46.4 °F - 44.6 °F 93% 29.80 in - ENE 1.2 mph - N/A   Mist
3:55 AM 46.4 °F - 44.6 °F 93% 29.77 in 2.2 mi NE 2.3 mph - N/A   Partly Cloudy
3:56 AM 44.6 °F - 44.6 °F 100% 29.77 in - NE 2.3 mph - N/A   Partly Cloudy
4:00 AM 45 °F - 45 °F 100% 29.79 in 2 mi NE 2.2 mph - -   Mist
4:12 AM 44.6 °F - 44.6 °F 100% 29.77 in - NE 2.3 mph - N/A   Partly Cloudy
4:25 AM 44.6 °F - 44.6 °F 100% 29.77 in - ENE 1.2 mph - N/A   Partly Cloudy
4:29 AM 44.6 °F - 44.6 °F 100% 29.77 in - ENE 1.2 mph - N/A   Partly Cloudy
4:42 AM 44.6 °F - 44.6 °F 100% 29.77 in - ENE 2.3 mph - N/A   Partly Cloudy
4:49 AM 44.6 °F - 44.6 °F 100% 29.77 in - NE 2.3 mph - N/A   Mist
4:55 AM 44.6 °F - 44.6 °F 100% 29.77 in 3.1 mi ENE 2.3 mph - N/A   Mist
4:59 AM 44.6 °F - 44.6 °F 100% 29.77 in - East 2.3 mph - N/A   Mist
5:00 AM 44 °F - 44 °F 97% 29.78 in 3 mi East 2.2 mph - -   Mist
5:09 AM 42.8 °F - 42.8 °F 100% 29.77 in 2.5 mi ENE 2.3 mph - N/A   Partly Cloudy
5:19 AM 44.6 °F - 42.8 °F 93% 29.77 in - ENE 2.3 mph - N/A   Partly Cloudy
5:25 AM 42.8 °F - 42.8 °F 100% 29.77 in 1.9 mi East 2.3 mph - N/A   Mist
5:30 AM 42.8 °F - 42.8 °F 100% 29.77 in - East 1.2 mph - N/A   Mist
5:43 AM 42.8 °F - 42.8 °F 100% 29.77 in - East 2.3 mph - N/A   Partly Cloudy
5:55 AM 42.8 °F - 42.8 °F 100% 29.77 in - ENE 2.3 mph - N/A   Scattered Clouds
5:59 AM 42.8 °F - 42.8 °F 100% 29.77 in - ENE 2.3 mph - N/A   Partly Cloudy
6:00 AM 42 °F - 42 °F 100% 29.77 in 2 mi East 2.2 mph - -   Mist
6:07 AM 42.8 °F 41.1 °F 42.8 °F 100% 29.77 in 3.1 mi East 3.5 mph - N/A   Mist
6:17 AM 42.8 °F - 41.0 °F 93% 29.77 in 3.1 mi East 2.3 mph - N/A   Mist
6:25 AM 42.8 °F - 42.8 °F 100% 29.77 in 2.8 mi East 2.3 mph - N/A   Mist
6:47 AM 42.8 °F - 42.8 °F 100% 29.77 in 1.9 mi ESE 2.3 mph - N/A   Partly Cloudy
6:55 AM 42.8 °F - 42.8 °F 100% 29.77 in - SE 1.2 mph - N/A   Partly Cloudy
7:00 AM 44 °F - 44 °F 97% 29.77 in 2 mi Calm Calm - -   Mist
7:08 AM 42.8 °F - 42.8 °F 100% 29.77 in 2.5 mi SSE 1.2 mph - N/A   Mist
7:15 AM 42.8 °F - 42.8 °F 100% 29.77 in 2.2 mi Calm Calm - N/A   Mist
7:25 AM 42.8 °F - 42.8 °F 100% 29.77 in 1.6 mi Calm Calm - N/A   Mist
7:32 AM 42.8 °F - 42.8 °F 100% 29.77 in - Calm Calm - N/A   Mist
7:36 AM 42.8 °F - 42.8 °F 100% 29.77 in 1.8 mi East 1.2 mph - N/A   Mist
7:55 AM 44.6 °F - 42.8 °F 93% 29.77 in - ENE 2.3 mph - N/A   Mist
8:00 AM 45 °F - 44 °F 96% 29.77 in 3 mi ENE 2.2 mph - -   Mist
8:00 AM 44.6 °F - 44.6 °F 100% 29.77 in 3.1 mi ENE 2.3 mph - N/A   Mist
8:05 AM 44.6 °F - 44.6 °F 100% 29.77 in - ENE 2.3 mph - N/A   Mist
8:14 AM 46.4 °F - 44.6 °F 93% 29.77 in 3.1 mi NE 2.3 mph - N/A   Partly Cloudy
8:25 AM 46.4 °F - 46.4 °F 100% 29.77 in 3.1 mi NE 1.2 mph - N/A   Mostly Cloudy
8:26 AM 46.4 °F - 46.4 °F 100% 29.77 in 3.1 mi ENE 1.2 mph - N/A   Mostly Cloudy
8:30 AM 46.4 °F - 46.4 °F 100% 29.77 in 2.8 mi ENE 1.2 mph - N/A   Mostly Cloudy
8:33 AM 48.2 °F - 46.4 °F 93% 29.77 in 3.1 mi Calm Calm - N/A   Scattered Clouds
8:48 AM 50.0 °F - 46.4 °F 87% 29.77 in 3.1 mi NE 1.2 mph - N/A   Mist
8:55 AM 50.0 °F - 46.4 °F 87% 29.77 in 3.1 mi NE 2.3 mph - N/A   Mist
9:00 AM 51 °F - 47 °F 82% 29.77 in 3 mi NE 2.2 mph - -   Mist
9:25 AM 53.6 °F - 48.2 °F 82% 29.74 in 3.1 mi NE 3.5 mph - N/A   Mist
9:39 AM 55.4 °F - 48.2 °F 77% 29.74 in 3.1 mi East 4.6 mph - N/A   Haze
9:55 AM 57.2 °F - 48.2 °F 72% 29.74 in 3.1 mi East 4.6 mph - N/A   Haze
10:00 AM 58 °F - 49 °F 63% 29.76 in 3 mi East 6.7 mph - -   Light Haze
10:25 AM 60.8 °F - 48.2 °F 63% 29.74 in 3.7 mi East 5.8 mph - N/A   Haze
10:55 AM 62.6 °F - 50.0 °F 63% 29.74 in 3.7 mi East 4.6 mph - N/A   Haze
11:00 AM 63 °F - 48 °F 48% 29.75 in 4 mi ESE 4.5 mph - -   Light Haze
11:25 AM 62.6 °F - 48.2 °F 59% 29.74 in 5.0 mi ESE 4.6 mph - N/A   Haze
11:36 AM 64.4 °F - 48.2 °F 56% 29.74 in 5.0 mi ESE 5.8 mph - N/A   Haze
11:55 AM 66.2 °F - 50.0 °F 56% 29.74 in 5.6 mi ESE 4.6 mph - N/A   Haze
12:00 PM 66 °F - 48 °F 41% 29.74 in 6 mi East 4.5 mph - -   Light Haze
12:25 PM 68.0 °F - 48.2 °F 49% 29.71 in 6.2 mi SSE 5.8 mph - N/A   Partly Cloudy
12:55 PM 68.0 °F - 44.6 °F 43% 29.71 in 6.2 mi SE 5.8 mph - N/A   Partly Cloudy
1:00 PM 68 °F - 46 °F 34% 29.72 in 9 mi SE 4.5 mph - -   Scattered Clouds
2:55 PM 69.8 °F - 46.4 °F 43% 29.68 in 6.2 mi NNE 2.3 mph - N/A   Partly Cloudy
3:00 PM 71 °F - 46 °F 30% 29.70 in 11 mi 2.2 mph - -   Scattered Clouds
3:25 PM 69.8 °F - 46.4 °F 43% 29.68 in 6.2 mi East 4.6 mph - N/A   Unknown
3:55 PM 69.8 °F - 46.4 °F 43% 29.65 in 6.2 mi ESE 3.5 mph - N/A   Partly Cloudy
4:00 PM 70 °F - 46 °F 31% 29.67 in 11 mi 2.2 mph - -   Scattered Clouds
4:25 PM 69.8 °F - 46.4 °F 43% 29.65 in 6.2 mi East 5.8 mph - N/A   Partly Cloudy
4:40 PM 69.8 °F - 44.6 °F 40% 29.65 in 6.2 mi ESE 6.9 mph - N/A   Partly Cloudy
4:55 PM 69.8 °F - 44.6 °F 40% 29.65 in 6.2 mi SE 6.9 mph - N/A   Mostly Cloudy
5:00 PM 70 °F - 47 °F 32% 29.65 in 19 mi ESE 6.7 mph - -   Mostly Cloudy
5:55 PM 71.6 °F - 46.4 °F 41% 29.65 in 6.2 mi East 4.6 mph - N/A   Partly Cloudy
6:00 PM 71 °F - 46 °F 30% 29.65 in 13 mi SE 4.5 mph - -   Scattered Clouds
6:25 PM 69.8 °F - 46.4 °F 43% 29.65 in 6.2 mi ESE 5.8 mph - N/A   Scattered Clouds
6:55 PM 69.8 °F - 44.6 °F 40% 29.65 in 6.2 mi South 6.9 mph - N/A   Unknown
7:00 PM 69 °F - 45 °F 30% 29.65 in 17 mi South 6.7 mph - -   Scattered Clouds
7:25 PM 68.0 °F - 46.4 °F 46% 29.65 in 6.2 mi South 3.5 mph - N/A   Unknown
7:55 PM 64.4 °F - 46.4 °F 52% 29.62 in 6.2 mi ESE 2.3 mph - N/A   Unknown
8:00 PM 63 °F - 47 °F 44% 29.65 in 17 mi East 2.2 mph - -   Partly Cloudy
8:25 PM 60.8 °F - 46.4 °F 59% 29.62 in 6.2 mi East 2.3 mph - N/A   Unknown
8:55 PM 60.8 °F - 48.2 °F 63% 29.62 in 6.2 mi NNE 3.5 mph - N/A   Unknown
9:00 PM 58 °F - 47 °F 57% 29.65 in 11 mi NE 2.2 mph - -  
9:25 PM 57.2 °F - 48.2 °F 72% 29.65 in 6.2 mi NNE 2.3 mph - N/A   Unknown
9:55 PM 57.2 °F - 48.2 °F 72% 29.65 in 6.2 mi East 2.3 mph - N/A   Partly Cloudy
10:00 PM 56 °F - 47 °F 63% 29.65 in 9 mi East 2.2 mph - -   Scattered Clouds
10:25 PM 55.4 °F - 46.4 °F 72% 29.62 in 6.2 mi East 2.3 mph - N/A   Mostly Cloudy
10:55 PM 53.6 °F - 46.4 °F 77% 29.62 in 6.2 mi East 3.5 mph - N/A   Partly Cloudy
11:00 PM 54 °F - 46 °F 67% 29.65 in 8 mi East 2.2 mph - -   Scattered Clouds
11:25 PM 53.6 °F - 46.4 °F 77% 29.62 in 6.2 mi East 3.5 mph - N/A   Unknown
11:55 PM 55.4 °F - 46.4 °F 72% 29.62 in 6.2 mi East 2.3 mph - N/A   Partly Cloudy